Regional Weather Roundup
Issued by NWS

Home | Current Version | Previous Version | Text Only | Print | Product List | Glossary On
Versions: 1 2 3 4 5 6 7 8 9 10 11 12 13 14 15 16 17 18 19 20 21 22 23 24 25 26 27 28 29 30 31 32 33 34 35 36 37 38 39 40 41 42 43 44 45 46 47 48 49 50
000
ASUS46 KSEW 300110
RWRWA

WASHINGTON REGIONAL WEATHER ROUNDUP
NATIONAL WEATHER SERVICE SEATTLE WA
600 PM PDT SUN MAY 29 2016

NOTE:"FAIR" INDICATES FEW OR NO CLOUDS BELOW 12,000 FEET WITH NO
SIGNIFICANT WEATHER AND/OR OBSTRUCTIONS TO VISIBILITY.

WAZ505-507>509-300200-
SEATTLE, TACOMA, EVERETT, AND VICINITY

CITY           SKY/WX    TMP DP  RH WIND       PRES   REMARKS
EVERETT        PTSUNNY   59  40  49 N8        30.20R
BOEING FIELD   MOSUNNY   63  43  48 N13       30.19R
RENTON         MOSUNNY   63  47  55 NW9       30.18R
SEATAC AIRPORT MOSUNNY   63  42  46 N12       30.19R
JBLM-MCCHORD   SUNNY     64  48  55 N12       30.17R
PUYALLUP       FAIR      64  50  59 VRB5      30.17R
BREMERTON      MOSUNNY   59  46  63 N10       30.20S
JBLM-FT LEWIS  SUNNY     66  47  49 NW5       30.16R
TACOMA NARROWS MOSUNNY   62  40  44 N10       30.19R
$$

WAZ001-503-506-510-514-515-300200-
NORTH INTERIOR

CITY           SKY/WX    TMP DP  RH WIND       PRES   REMARKS
BELLINGHAM     SUNNY     63  45  51 S6        30.17R
FRIDAY HARBOR  SUNNY     63  40  42 SW6       30.18R
EASTSOUND      SUNNY     63  45  51 CALM      30.16R
PORT ANGELES   SUNNY     57  46  66 NW17G25   30.19R
EDIZ HOOK      FAIR      56  48  72 W18G25    30.19S
PORT TOWNSEND  FAIR      59  46  63 NW10G18   30.20R
NAS WHIDBEY    MOSUNNY   60  47  61 SW10      30.22S
ARLINGTON      MOSUNNY   63  39  42 W9        30.20R
BURLINGTON     SUNNY     63  43  48 S7G14     30.18R
$$

WAZ020-022-039-040-504-511-512-300200-
SOUTHWEST INTERIOR

CITY           SKY/WX    TMP DP  RH WIND       PRES   REMARKS
SHELTON        PTSUNNY   63  49  60 N7        30.15R
OLYMPIA        MOSUNNY   65  42  43 W9        30.16S
CHEHALIS       FAIR      66  43  42 N6G13     30.18R
KELSO          PTSUNNY   66  45  45 W10G20    30.20S
VANCOUVER      MOSUNNY   67  46  47 NW8G17    30.15S
SCAPPOOSE, OR  MOSUNNY   68  43  40 NW10      30.15S
PORTLAND, OR   MOSUNNY   69  45  41 W12       30.15S
$$

WAZ021-516-517-300200-
WASHINGTON COAST

CITY           SKY/WX    TMP DP  RH WIND       PRES   REMARKS
FORKS          MOSUNNY   57  45  64 W9        30.23S
HOQUIAM        SUNNY     59  46  62 W20       30.21S
ASTORIA, OR    SUNNY     60  45  57 NW14      30.22S
$$

WAZ019-023-024-040-518-519-300200-
CASCADE MOUNTAINS AND COLUMBIA GORGE

CITY           SKY/WX    TMP DP  RH WIND       PRES   REMARKS
STAMPEDE PASS  CLOUDY    45  37  73 NW9G21    30.15R
TROUTDALE, OR  MOSUNNY   68  47  46 CALM      30.14S
THE DALLES, OR SUNNY     71  40  32 W26G35    30.06R
$$

WAZ026-027-041>044-520-521-300200-
EAST SLOPES

CITY           SKY/WX    TMP DP  RH WIND       PRES   REMARKS
OMAK           SUNNY     64  39  39 N24G32    29.99R
WENATCHEE      LGT RAIN  69  33  26 NW22G33   30.00R
ELLENSBURG     SUNNY     62  41  46 W25G35    30.07R
YAKIMA         SUNNY     73  38  27 NW18G24   30.02R
$$

WAZ028-034-035-300200-
COLUMBIA BASIN

CITY           SKY/WX    TMP DP  RH WIND       PRES   REMARKS
EPHRATA        SUNNY     73  33  23 NW23      29.96R
MOSES LAKE     SUNNY     75  33  21 W22G28    29.96R
PASCO          MOSUNNY   77  42  28 NW15      29.95R
HERMISTON, OR  SUNNY     77  38  24 W20G29    29.97R
$$

WAZ036>038-300200-
NORTHEAST WASHINGTON

CITY           SKY/WX    TMP DP  RH WIND       PRES   REMARKS
SPOKANE GEIGER MOSUNNY   69  30  23 W18G29    29.95S
SPOKANE FELTS  MOSUNNY   72  34  24 SW16G24   29.94S
FAIRCHILD AFB  SUNNY     67  33  27 SW17      29.96R
COEURDALENE,ID PTSUNNY   68  39  34 E15G22    29.92S
DEER PARK      PTSUNNY   68  33  27 W17G23    29.94R
$$

WAZ029>033-300200-
SOUTHEAST WASHINGTON

CITY           SKY/WX    TMP DP  RH WIND       PRES   REMARKS
PULLMAN        SUNNY     68  35  29 W13G24    30.01R
LEWISTON, ID   PTSUNNY   75  39  27 NW14G28   29.93S
WALLA WALLA    SUNNY     73  38  27 SW14G20   29.98S
PENDLETON, OR  SUNNY     74  32  21 W22       29.99R
$$



USA.gov is the U.S. government's official web portal to all federal, state and local government web resources and services.